Wind_Speed
19 16 15 14 12 13 15 17 19 22 25 30 33 34 36 38 39 40 40 41 42 44 44 44 46 44 44 45 41 37 39 42 45 40 41 41 43 46 49 48 50 51 50 49
17 17 15 15 14 15 17 20 22 26 30 33 37 39 41 41 41 41 41 41 41 42 42 42 41 39 41 43 41 40 41 43 45 42 41 37 35 40 46 48 48 50 51 49
16 16 16 18 18 19 21 23 26 30 34 37 39 39 41 43 42 41 42 42 41 41 40 39 36 36 36 40 46 47 49 50 52 52 50 48 45 44 47 49 47 47 51 53
16 18 19 21 22 24 27 27 31 35 38 39 39 40 41 42 42 41 40 41 39 38 39 39 40 40 41 44 49 50 50 52 55 56 56 57 55 52 55 56 52 53 50 50
16 19 21 23 24 26 28 31 35 37 37 38 38 39 39 39 39 40 41 44 44 44 43 43 43 42 43 45 48 51 56 57 58 55 56 57 58 59 61 58 59 57 52 50
17 19 21 23 25 28 30 34 38 39 39 39 38 40 41 42 43 44 42 40 42 44 46 46 47 48 49 50 51 53 56 59 61 64 67 69 71 70 65 63 58 57 58 52
14 19 24 25 26 31 34 37 38 39 38 40 41 45 44 46 45 43 42 43 41 41 42 43 43 46 46 48 51 54 58 59 59 68 66 69 68 67 64 68 67 67 58 54
15 19 25 29 29 33 35 36 36 41 42 44 43 46 46 46 46 46 47 48 49 48 45 50 49 50 52 55 57 58 61 65 66 70 75 74 73 74 73 72 72 69 63 61
20 19 28 31 33 36 36 36 39 41 44 47 49 49 48 47 48 48 49 51 53 54 52 51 49 53 53 54 56 59 61 63 65 65 66 66 67 66 67 70 68 66 69 69
23 23 26 30 33 36 35 38 40 42 45 48 49 51 49 47 46 47 49 51 52 52 51 52 50 45 45 44 44 48 51 51 55 58 60 63 62 61 61 61 63 63 64 65
24 25 27 30 31 32 33 36 39 43 45 48 52 51 48 49 50 51 51 50 50 51 49 44 44 46 44 46 50 51 52 53 51 52 54 53 52 54 55 54 53 52 52 53
25 25 27 28 31 32 34 38 41 45 47 46 50 50 48 51 53 52 51 49 47 49 50 45 42 45 47 48 48 48 47 51 53 55 59 62 64 64 63 61 59 59 58 57
24 25 27 29 32 35 36 39 42 44 45 45 49 51 48 49 50 48 45 45 47 47 46 48 48 44 45 47 49 51 54 57 62 68 71 71 71 69 66 65 63 60 59 57
23 24 26 29 33 35 36 39 42 44 46 50 51 52 48 47 45 41 41 42 46 46 44 43 43 45 46 50 54 57 58 59 56 51 50 52 53 52 51 52 54 56 57 53
23 24 24 27 32 34 37 40 43 46 47 51 51 51 49 46 45 46 47 47 45 42 42 43 44 45 50 55 54 47 35 40 39 40 40 37 38 39 39 40 41 42 40 40
23 24 25 25 31 34 37 41 45 47 48 53 54 49 47 45 47 48 47 49 44 43 42 40 42 48 53 44 37 36 40 40 37 36 34 30 29 30 30 30 29 29 30 29
23 24 27 29 31 35 41 45 47 50 52 56 53 52 52 50 47 47 48 41 42 40 39 41 45 44 40 34 34 36 36 35 33 32 31 27 26 27 26 23 20 16 14 14
23 25 27 30 34 40 43 46 49 53 54 55 52 51 50 48 46 43 42 44 40 40 41 41 41 37 32 33 36 35 34 33 30 28 27 24 23 22 19 17 12 8 5 5
22 23 27 31 35 38 43 47 52 55 54 54 54 50 48 48 43 35 41 39 41 41 40 39 36 31 33 35 31 30 31 32 28 25 23 23 22 19 17 15 10 4 4 4
21 21 24 28 35 42 44 50 53 56 57 57 55 50 49 49 45 36 34 35 35 38 41 39 33 35 34 33 33 33 33 31 30 27 23 21 20 16 14 11 9 6 9 8
20 20 23 28 34 39 45 51 54 56 57 59 54 52 51 49 47 44 40 34 36 39 38 34 33 32 37 40 40 36 34 31 29 25 21 18 17 12 9 4 2 6 11 12
20 21 23 28 35 41 47 54 58 59 59 59 55 53 51 47 44 43 38 38 38 36 30 30 32 37 39 40 40 39 39 33 28 22 17 16 12 7 5 7 9 10 10 10
20 20 23 29 36 42 47 53 60 61 61 58 53 52 52 47 42 38 37 34 34 27 28 32 37 41 40 41 36 34 26 24 21 17 14 13 8 8 9 14 14 13 11 10
20 21 24 31 38 42 47 52 60 62 61 55 50 51 50 45 41 35 34 33 25 26 27 33 39 42 41 37 32 22 19 14 11 10 10 9 6 16 18 18 16 14 12 11
21 23 26 32 38 42 48 51 59 65 60 53 47 48 47 43 37 37 32 27 24 24 26 36 42 42 38 28 22 17 10 2 1 7 7 6 14 21 20 20 18 15 12 12
22 23 28 34 39 43 48 53 59 64 60 51 45 43 41 39 35 34 32 23 22 23 26 35 40 37 32 23 17 12 8 8 8 7 6 11 19 22 21 21 19 17 16 17
Wind_Direction
279 283 287 289 289 282 288 290 283 278 279 282 284 287 291 294 294 294 293 292 291 290 289 287 287 286 283 281 280 263 262 266 269 271 268 268 269 269 270 274 277 274 271 270
276 287 293 294 292 286 278 276 277 282 285 286 289 294 296 295 294 293 290 288 287 285 282 279 276 275 273 270 270 267 262 266 273 275 288 278 274 263 277 285 287 283 276 272
277 278 282 283 285 284 282 288 296 294 294 295 296 296 294 293 294 294 291 290 288 286 285 283 278 275 269 263 264 265 264 267 272 271 271 275 274 264 271 279 283 285 279 279
273 278 280 282 284 287 292 297 298 298 299 299 297 295 294 294 295 295 295 293 291 288 288 283 277 270 264 259 258 260 262 264 266 269 268 267 267 269 272 275 274 273 271 276
272 273 276 280 285 291 298 302 301 299 296 295 296 295 296 299 299 298 297 297 296 293 288 281 277 270 266 262 261 263 263 264 265 266 267 268 269 272 277 276 272 277 267 271
278 278 277 281 289 292 296 299 301 304 305 307 307 304 301 301 300 299 298 293 292 289 283 277 275 273 268 265 264 266 266 266 267 269 271 273 273 273 273 276 276 275 269 266
278 284 287 292 299 303 307 309 310 309 309 307 308 305 309 307 305 303 299 296 289 284 283 281 283 278 275 273 269 264 264 267 267 269 266 269 268 269 270 270 281 277 278 269
283 294 296 298 305 308 312 313 314 311 311 310 309 310 310 310 308 305 301 298 297 296 289 287 287 283 279 277 275 272 270 270 271 270 271 277 276 273 274 272 280 279 275 269
298 304 304 305 309 313 315 317 315 314 311 312 313 313 312 314 309 304 301 301 299 299 298 295 293 293 289 287 285 282 279 278 279 280 279 280 281 280 278 276 275 273 275 272
307 310 306 310 313 313 317 317 317 316 314 314 315 313 314 311 306 302 300 298 296 298 297 297 296 294 291 285 287 287 280 279 283 282 281 280 280 280 274 269 268 269 269 269
308 308 309 309 314 315 317 316 316 315 317 317 316 316 314 309 304 302 303 300 298 295 297 299 296 295 293 289 286 288 284 282 282 283 283 281 281 282 282 280 277 274 270 268
305 309 311 313 312 315 319 321 321 320 319 318 314 316 313 310 306 308 306 304 302 301 301 301 301 299 298 296 293 290 289 287 286 285 283 281 280 280 280 280 277 273 270 268
308 311 310 312 313 321 326 326 322 319 317 318 315 316 316 309 309 308 306 304 302 301 301 298 298 297 297 295 292 288 287 288 290 289 287 285 284 282 280 280 279 275 272 269
305 305 311 315 318 324 327 325 323 318 321 320 321 319 317 314 312 308 306 304 301 300 298 299 298 296 296 294 291 291 293 293 293 295 294 290 287 283 281 279 277 273 269 265
301 305 312 318 321 323 326 324 322 322 325 321 321 321 316 317 314 309 307 306 304 300 298 297 298 300 301 298 299 300 300 300 302 307 304 299 290 286 284 282 280 277 274 266
302 308 313 322 321 323 327 327 322 325 327 322 323 323 318 315 313 313 309 305 304 301 298 299 305 305 301 301 300 300 303 300 304 311 309 303 301 298 299 300 292 281 271 262
304 309 314 323 323 328 327 327 326 328 330 325 326 321 321 321 319 316 309 306 309 309 307 306 307 307 307 305 301 304 302 303 305 306 312 308 301 302 302 306 308 305 287 268
304 311 318 323 327 332 332 329 329 330 332 327 324 321 323 322 323 319 312 309 307 305 305 308 314 315 309 306 306 309 304 303 306 303 311 308 304 304 302 300 307 303 280 248
304 312 319 327 333 333 334 334 333 331 331 327 325 329 327 323 322 323 313 308 305 305 310 315 318 312 311 310 312 315 309 304 306 310 306 306 305 303 306 290 287 281 236 223
305 315 324 332 333 335 339 339 336 333 331 329 331 332 329 327 327 328 322 317 313 315 317 319 315 317 315 313 313 312 308 300 297 301 303 301 298 298 298 295 287 239 203 193
304 313 325 329 334 338 339 341 337 334 332 333 333 333 332 332 330 330 326 323 319 315 316 315 318 320 318 315 312 307 304 298 296 293 295 289 293 291 284 270 237 175 187 186
303 310 320 321 330 336 336 339 339 337 336 334 334 331 331 332 330 327 327 326 322 321 321 323 324 321 320 317 312 307 298 291 285 286 288 277 282 266 236 171 146 140 149 162
298 307 316 318 329 333 334 335 337 337 336 335 332 330 329 331 329 329 330 327 325 329 332 334 331 328 322 321 316 313 307 292 278 270 268 256 255 194 172 157 152 147 149 149
295 303 309 315 325 334 333 331 336 337 335 334 331 329 328 329 330 334 332 329 330 332 341 341 342 337 333 329 324 322 317 306 278 246 223 225 192 170 160 155 157 152 145 148
296 302 305 314 322 331 332 331 335 337 333 333 331 327 327 329 331 336 335 333 335 340 341 348 346 344 343 340 341 338 341 348 200 165 174 178 160 169 160 156 154 150 145 155
292 298 304 313 322 329 330 333 335 335 332 333 330 329 328 329 333 340 335 337 339 347 349 352 353 354 356 356 7 16 46 85 111 124 137 142 158 164 155 153 153 153 144 148
Height
5863 5865 5865 5865 5864 5864 5864 5864 5863 5862 5862 5859 5856 5853 5851 5849 5847 5845 5843 5840 5838 5834 5831 5827 5825 5825 5825 5824 5824 5823 5821 5819 5817 5817 5815 5814 5812 5809 5808 5808 5807 5806 5806 5805
5862 5861 5861 5860 5860 5860 5860 5859 5858 5856 5853 5851 5848 5846 5843 5840 5837 5836 5834 5831 5828 5825 5823 5821 5818 5816 5813 5813 5813 5812 5810 5809 5807 5807 5806 5804 5804 5802 5802 5800 5798 5795 5793 5793
5858 5858 5858 5857 5856 5855 5854 5853 5852 5850 5847 5844 5840 5838 5834 5830 5827 5825 5822 5820 5817 5814 5811 5809 5808 5806 5804 5802 5801 5800 5799 5798 5797 5796 5794 5794 5794 5792 5790 5789 5787 5784 5782 5782
5856 5855 5854 5853 5852 5852 5849 5848 5846 5843 5840 5837 5834 5830 5825 5823 5819 5815 5811 5808 5806 5803 5800 5799 5797 5796 5794 5792 5788 5787 5786 5785 5785 5783 5782 5781 5780 5778 5774 5772 5771 5770 5771 5770
5854 5851 5850 5849 5848 5846 5846 5843 5840 5836 5833 5830 5827 5824 5817 5813 5810 5805 5802 5798 5795 5792 5790 5789 5786 5784 5782 5780 5777 5776 5774 5772 5770 5767 5764 5763 5762 5762 5761 5761 5760 5759 5759 5758
5850 5848 5846 5845 5844 5842 5841 5838 5833 5829 5824 5820 5817 5814 5810 5806 5802 5797 5794 5790 5785 5780 5776 5773 5771 5770 5769 5767 5764 5762 5760 5759 5756 5753 5750 5749 5748 5746 5744 5742 5742 5742 5743 5744
5846 5842 5839 5840 5840 5836 5833 5829 5825 5821 5817 5814 5808 5803 5800 5795 5790 5786 5780 5776 5771 5768 5765 5762 5759 5756 5752 5750 5749 5746 5743 5741 5737 5735 5731 5732 5731 5729 5728 5727 5725 5726 5727 5729
5842 5839 5835 5834 5833 5830 5827 5823 5819 5813 5809 5805 5800 5796 5790 5783 5778 5772 5766 5762 5757 5754 5752 5748 5744 5741 5737 5734 5732 5728 5725 5722 5718 5717 5714 5711 5711 5710 5710 5709 5707 5707 5708 5710
5836 5836 5830 5828 5826 5824 5819 5816 5811 5806 5801 5795 5789 5784 5778 5774 5767 5760 5754 5748 5743 5739 5735 5732 5729 5724 5720 5716 5712 5709 5706 5704 5701 5700 5697 5694 5690 5688 5687 5688 5688 5689 5689 5690
5831 5831 5827 5823 5821 5817 5814 5810 5804 5798 5791 5785 5781 5774 5769 5763 5757 5750 5743 5737 5731 5725 5722 5718 5714 5709 5706 5701 5697 5692 5689 5687 5684 5681 5676 5673 5671 5667 5665 5665 5666 5666 5668 5670
5826 5825 5823 5819 5815 5812 5809 5803 5798 5791 5785 5777 5771 5767 5759 5752 5744 5738 5732 5726 5720 5715 5709 5705 5701 5697 5692 5689 5684 5679 5674 5671 5668 5664 5660 5656 5654 5651 5648 5646 5645 5646 5647 5648
5821 5819 5816 5814 5809 5806 5802 5796 5790 5782 5778 5771 5762 5759 5749 5740 5731 5726 5719 5713 5706 5700 5696 5692 5688 5683 5678 5673 5668 5664 5659 5655 5652 5648 5642 5638 5635 5633 5629 5627 5627 5627 5628 5629
5815 5813 5810 5807 5804 5799 5794 5788 5781 5775 5770 5765 5754 5748 5740 5730 5722 5714 5708 5702 5695 5689 5684 5680 5676 5672 5666 5661 5656 5651 5647 5641 5636 5629 5623 5618 5613 5608 5607 5605 5604 5605 5605 5607
5810 5808 5806 5801 5797 5793 5789 5782 5775 5767 5761 5752 5745 5735 5729 5720 5712 5705 5699 5693 5687 5680 5674 5668 5664 5659 5655 5648 5641 5636 5632 5626 5618 5611 5604 5598 5593 5590 5588 5586 5584 5583 5583 5584
5806 5804 5801 5797 5792 5788 5784 5776 5768 5759 5753 5743 5736 5726 5716 5709 5702 5695 5688 5681 5675 5670 5664 5658 5652 5646 5640 5631 5625 5620 5616 5611 5605 5599 5592 5585 5581 5579 5576 5573 5570 5567 5566 5566
5800 5798 5796 5793 5787 5783 5777 5769 5760 5753 5745 5733 5723 5716 5706 5700 5692 5684 5677 5667 5663 5657 5651 5646 5641 5634 5626 5619 5614 5611 5606 5600 5594 5590 5583 5578 5573 5570 5566 5563 5559 5556 5554 5555
5795 5792 5789 5786 5781 5776 5771 5761 5752 5744 5734 5721 5712 5704 5695 5689 5683 5674 5662 5658 5650 5645 5639 5635 5629 5622 5614 5609 5605 5602 5595 5590 5585 5581 5576 5570 5566 5563 5559 5556 5552 5549 5548 5549
5789 5787 5783 5780 5775 5769 5762 5752 5744 5734 5726 5713 5703 5695 5686 5678 5673 5662 5652 5643 5641 5635 5629 5625 5617 5610 5604 5600 5596 5591 5585 5581 5577 5573 5569 5564 5561 5558 5555 5552 5550 5548 5548 5549
5785 5782 5778 5773 5768 5763 5754 5744 5736 5726 5720 5707 5696 5687 5678 5669 5664 5658 5644 5638 5630 5625 5620 5614 5607 5602 5597 5591 5587 5582 5577 5573 5569 5565 5562 5559 5555 5553 5551 5549 5549 5549 5549 5550
5780 5777 5774 5768 5762 5754 5747 5737 5728 5718 5709 5698 5687 5678 5668 5658 5651 5648 5639 5630 5624 5617 5609 5602 5599 5593 5587 5583 5578 5574 5570 5565 5562 5559 5557 5554 5551 5550 5548 5546 5547 5548 5549 5551
5774 5771 5767 5762 5756 5750 5741 5733 5723 5713 5703 5688 5678 5669 5660 5651 5641 5634 5629 5624 5617 5609 5602 5597 5592 5586 5579 5573 5567 5563 5559 5556 5552 5551 5550 5548 5547 5547 5546 5546 5547 5547 5549 5552
5769 5766 5762 5757 5751 5744 5735 5727 5716 5705 5693 5680 5671 5662 5653 5646 5638 5630 5622 5615 5608 5603 5597 5591 5585 5578 5570 5563 5556 5551 5546 5544 5542 5543 5544 5543 5543 5544 5545 5546 5548 5549 5551 5553
5765 5762 5757 5752 5746 5738 5729 5721 5710 5697 5685 5675 5664 5656 5646 5640 5632 5624 5617 5610 5603 5597 5592 5586 5579 5571 5561 5552 5543 5538 5533 5531 5531 5534 5536 5539 5540 5541 5543 5547 5549 5551 5553 5555
5758 5755 5752 5746 5741 5734 5725 5715 5705 5691 5679 5670 5659 5650 5641 5633 5625 5620 5612 5605 5600 5594 5589 5583 5574 5564 5553 5542 5534 5529 5526 5524 5525 5527 5531 5535 5537 5540 5542 5547 5550 5553 5555 5557
5753 5749 5745 5741 5735 5729 5720 5710 5699 5686 5674 5664 5655 5645 5635 5628 5621 5615 5608 5602 5597 5592 5587 5579 5570 5558 5547 5538 5531 5526 5523 5522 5523 5526 5530 5532 5535 5539 5543 5548 5552 5555 5558 5559
5746 5743 5739 5734 5729 5722 5715 5704 5693 5682 5670 5659 5650 5641 5632 5623 5616 5610 5603 5599 5594 5591 5585 5578 5567 5557 5546 5538 5532 5528 5526 5525 5526 5527 5529 5532 5535 5540 5546 5550 5554 5557 5560 5562